Flag for U.S.A. Weather past 2 weeks in Bryan – College Station, Texas, U.S.A.

Now
75 °F

Overcast.


Feels Like: 75 °F
Forecast: 72 / 86 °F
Wind: 8 mph from North

Location: Easterwood Field

Current Time: Aug 1, 2014 at 11:29:18 AM

Latest Report: Aug 1, 2014 at 10:53 AM


Visibility: 10 mi

Pressure: 30.01 "Hg

Humidity: 82%

Dew point: 69 °F

Location of Bryan – College StationLocation

Historic Weather in Bryan – College Station — Graph

°F

Bryan – College Station temperature yesterday

Maximum temperature yesterday: 92 °F (at 3:53 PM)
Minimum temperature yesterday: 76 °F (at 6:53 AM)
Average temperature yesterday: 81 °F

Past Weeks' High & Low Weather Summary

 TemperatureHumidityPressure
High96 °F (Jul 28, 3:53 PM)97% (Jul 18, 1:53 AM)30.13 "Hg (Jul 18, 1:53 AM)
Low70 °F (Jul 19, 5:53 AM)35% (Jul 28, 3:53 PM)29.80 "Hg (Jul 17, 4:53 PM)
Average82 °F73%29.99 "Hg
* Reported Jul 17 9:53 AM — Aug 1 9:53 AM, Bryan – College Station, Weather by CustomWeather, © 2014

Note: Actual official high and low records may vary slightly from our data, if they occured in-between our weather recording intervals... More about our weather records

Advertising

Bryan – College Station weather history for previous 24 hours

 ConditionsComfort  
Time TempWeatherWind HumidityBarometerVisibility
9:53 AM
Aug 1
74 °FOvercast.10 mph85%30.00 "Hg10 mi
8:53 AM73 °FOvercast.9 mph88%29.99 "Hg10 mi
7:53 AM72 °FPartly sunny.8 mph91%29.97 "Hg10 mi
6:53 AM72 °FOvercast.9 mph87%29.98 "Hg10 mi
5:53 AM72 °FOvercast.5 mph87%29.97 "Hg10 mi
4:53 AM72 °FMostly cloudy.6 mph87%29.96 "Hg10 mi
3:53 AM72 °FPassing clouds.5 mph87%29.95 "Hg10 mi
2:53 AM73 °FPartly cloudy.7 mph88%29.95 "Hg10 mi
1:53 AM74 °FMostly cloudy.6 mph85%29.96 "Hg10 mi
12:53 AM75 °FMostly cloudy.6 mph82%29.97 "Hg10 mi
11:53 PM
Jul 31
77 °FOvercast.6 mph88%29.98 "Hg10 mi
10:53 PM78 °FPassing clouds.3 mph84%29.96 "Hg10 mi
9:53 PM78 °FClear.7 mph90%29.94 "Hg10 mi
8:53 PM78 °FSunny.6 mph93%29.89 "Hg9 mi
7:53 PM79 °FBroken clouds.3 mph90%29.90 "Hg10 mi
6:53 PM79 °FThunderstorms. Fog.No wind88%29.90 "Hg1 mi
6:03 PM80 °FStrong thunderstorms. Fog.23 mph87%29.89 "Hg2 mi
5:53 PM88 °FThunderstorms. Overcast.15 mph61%29.88 "Hg9 mi
4:53 PM92 °FPassing clouds.9 mph51%29.88 "Hg10 mi
3:53 PM92 °FSunny.9 mph54%29.90 "Hg10 mi
2:53 PM89 °FSunny.9 mph59%29.93 "Hg10 mi
1:53 PM88 °FPassing clouds.7 mph59%29.96 "Hg10 mi
12:53 PM86 °FPartly sunny.7 mph65%29.97 "Hg10 mi
11:53 AM84 °FMostly cloudy.6 mph72%29.98 "Hg10 mi
Weather by CustomWeather, © 2014

See weather overviewHow to use our weather pages